When you browse on this site, cookies collect data to enhance your experience and personalize the content and advertising you see.
Visit our Privacy Policy to learn more. By continuing to use the site, you agree to this use of cookies and data.
  • In Deutschland
  • Länderverzeichnis
  • Für 7 Tage
  • Wassertemperatur
  • Wetterkarte
  • Widgets
  • user-avatar
    Anmelden

    Stündliche Wetter Kabul

    Heute, 22 Januar, Mittwoch

    Zeit Temperatur Niederschläge Wind Luftdruck Luftfeuchtigkeit
    00:00 -7°C° 0 mm 2 m/S 607 mmHg 86%
    01:00 -8°C° 0 mm 2 m/S 607 mmHg 83%
    02:00 -8°C° 0 mm 2 m/S 607 mmHg 81%
    03:00 -9°C° 0 mm 2 m/S 607 mmHg 79%
    04:00 -9°C° 0 mm 2 m/S 607 mmHg 77%
    05:00 -8°C° 0 mm 2 m/S 607 mmHg 73%
    06:00 -8°C° 0 mm 2 m/S 608 mmHg 72%
    07:00 -9°C° 0 mm 2 m/S 608 mmHg 70%
    08:00 -9°C° 0 mm 2 m/S 608 mmHg 69%
    09:00 -7°C° 0 mm 2 m/S 609 mmHg 67%
    10:00 -6°C° 0 mm 2 m/S 609 mmHg 65%
    11:00 -5°C° 0 mm 2 m/S 609 mmHg 63%
    12:00 -4°C° 0 mm 2 m/S 609 mmHg 63%
    13:00 -1°C° 0 mm 1 m/S 609 mmHg 63%
    14:00 -1°C° 0 mm 1 m/S 608 mmHg 63%
    15:00 -2°C° 0 mm 1 m/S 608 mmHg 65%
    16:00 -2°C° 0 mm 1 m/S 608 mmHg 66%
    17:00 -3°C° 0 mm 1 m/S 607 mmHg 68%
    18:00 -6°C° 0 mm 2 m/S 608 mmHg 65%
    19:00 -6°C° 0 mm 2 m/S 609 mmHg 63%
    20:00 -7°C° 0 mm 2 m/S 609 mmHg 60%
    21:00 -7°C° 0 mm 2 m/S 609 mmHg 58%
    22:00 -7°C° 0 mm 2 m/S 609 mmHg 55%
    23:00 -8°C° 0 mm 2 m/S 609 mmHg 53%

    Morgen, 23 Januar, Donnerstag

    Zeit Temperatur Niederschläge Wind Luftdruck Luftfeuchtigkeit
    00:00 -8°C° 0 mm 2 m/S 609 mmHg 52%
    01:00 -8°C° 0 mm 2 m/S 608 mmHg 50%
    02:00 -9°C° 0 mm 2 m/S 608 mmHg 49%
    03:00 -9°C° 0 mm 2 m/S 607 mmHg 48%
    04:00 -9°C° 0 mm 2 m/S 607 mmHg 47%
    05:00 -10°C° 0 mm 2 m/S 606 mmHg 46%
    06:00 -10°C° 0 mm 2 m/S 606 mmHg 45%
    07:00 -10°C° 0 mm 2 m/S 606 mmHg 44%
    08:00 -10°C° 0 mm 2 m/S 606 mmHg 43%
    09:00 -9°C° 0 mm 2 m/S 606 mmHg 44%
    10:00 -7°C° 0 mm 2 m/S 607 mmHg 45%
    11:00 -5°C° 0 mm 2 m/S 607 mmHg 46%
    12:00 -5°C° 0 mm 2 m/S 606 mmHg 47%
    13:00 -4°C° 0 mm 2 m/S 606 mmHg 47%
    14:00 -1°C° 0 mm 1 m/S 605 mmHg 48%
    15:00 -2°C° 0 mm 1 m/S 605 mmHg 51%
    16:00 -2°C° 0 mm 1 m/S 605 mmHg 53%
    17:00 -3°C° 0 mm 1 m/S 604 mmHg 55%
    18:00 -3°C° 0 mm 1 m/S 605 mmHg 54%
    19:00 -4°C° 0 mm 1 m/S 605 mmHg 53%
    20:00 -4°C° 0 mm 1 m/S 605 mmHg 53%
    21:00 -4°C° 0 mm 1 m/S 605 mmHg 52%
    22:00 -4°C° 0 mm 1 m/S 605 mmHg 51%
    23:00 -4°C° 0 mm 1 m/S 606 mmHg 50%

    übermorgen, 24 Januar, Freitag

    Zeit Temperatur Niederschläge Wind Luftdruck Luftfeuchtigkeit
    00:00 -4°C° 0 mm 1 m/S 605 mmHg 49%
    01:00 -7°C° 0 mm 2 m/S 605 mmHg 48%
    02:00 -7°C° 0 mm 2 m/S 605 mmHg 47%
    03:00 -7°C° 0 mm 2 m/S 604 mmHg 47%
    04:00 -7°C° 0 mm 2 m/S 604 mmHg 46%
    05:00 -6°C° 0 mm 1 m/S 603 mmHg 45%
    06:00 -6°C° 0 mm 1 m/S 603 mmHg 45%
    07:00 -4°C° 0 mm 1 m/S 603 mmHg 45%
    08:00 -4°C° 0 mm 1 m/S 604 mmHg 44%
    09:00 -3°C° 0 mm 1 m/S 604 mmHg 44%
    10:00 -1°C° 0 mm 1 m/S 604 mmHg 44%
    11:00 0°C° 0 mm 1 m/S 605 mmHg 43%
    12:00 +1°C° 0.1 mm 1 m/S 604 mmHg 47%
    13:00 +1°C° 0.1 mm 1 m/S 604 mmHg 51%
    14:00 +2°C° 0.1 mm 1 m/S 604 mmHg 55%
    15:00 +1°C° 0.1 mm 1 m/S 604 mmHg 59%
    16:00 +1°C° 0.1 mm 1 m/S 604 mmHg 64%
    17:00 +1°C° 0.1 mm 1 m/S 604 mmHg 69%
    18:00 0°C° 0 mm 1 m/S 604 mmHg 72%
    19:00 -1°C° 0 mm 1 m/S 604 mmHg 74%
    20:00 -2°C° 0 mm 1 m/S 604 mmHg 76%
    21:00 -2°C° 0 mm 1 m/S 604 mmHg 76%
    22:00 -5°C° 0 mm 2 m/S 605 mmHg 76%
    23:00 -5°C° 0 mm 2 m/S 605 mmHg 76%

    25 Januar, Samstag

    Zeit Temperatur Niederschläge Wind Luftdruck Luftfeuchtigkeit
    00:00 -5°C° 0 mm 2 m/S 605 mmHg 76%
    01:00 -5°C° 0 mm 2 m/S 605 mmHg 76%
    02:00 -5°C° 0 mm 2 m/S 605 mmHg 76%
    03:00 -5°C° 0 mm 2 m/S 605 mmHg 76%
    04:00 -5°C° 0 mm 2 m/S 604 mmHg 76%
    05:00 -6°C° 0 mm 2 m/S 604 mmHg 76%
    06:00 -6°C° 0 mm 2 m/S 605 mmHg 75%
    07:00 -6°C° 0 mm 2 m/S 605 mmHg 74%
    08:00 -6°C° 0 mm 2 m/S 605 mmHg 73%
    09:00 -5°C° 0 mm 2 m/S 605 mmHg 71%
    10:00 -3°C° 0 mm 2 m/S 606 mmHg 68%
    11:00 -2°C° 0 mm 2 m/S 606 mmHg 66%
    12:00 -1°C° 0 mm 2 m/S 605 mmHg 66%
    13:00 -1°C° 0 mm 2 m/S 605 mmHg 65%
    14:00 +1°C° 0 mm 2 m/S 604 mmHg 65%
    15:00 +1°C° 0 mm 1 m/S 604 mmHg 67%
    16:00 0°C° 0 mm 1 m/S 604 mmHg 70%
    17:00 0°C° 0 mm 1 m/S 604 mmHg 72%
    18:00 -1°C° 0 mm 1 m/S 604 mmHg 70%
    19:00 -4°C° 0 mm 2 m/S 605 mmHg 68%
    20:00 -4°C° 0 mm 2 m/S 605 mmHg 66%
    21:00 -5°C° 0 mm 2 m/S 605 mmHg 63%
    22:00 -5°C° 0 mm 2 m/S 606 mmHg 60%
    23:00 -5°C° 0 mm 2 m/S 606 mmHg 57%

    26 Januar, Sonntag

    Zeit Temperatur Niederschläge Wind Luftdruck Luftfeuchtigkeit
    00:00 -6°C° 0 mm 2 m/S 605 mmHg 56%
    01:00 -6°C° 0 mm 2 m/S 605 mmHg 54%
    02:00 -6°C° 0 mm 2 m/S 605 mmHg 53%
    03:00 -7°C° 0 mm 2 m/S 604 mmHg 51%
    04:00 -7°C° 0 mm 2 m/S 604 mmHg 49%
    05:00 -7°C° 0 mm 2 m/S 604 mmHg 47%
    06:00 -7°C° 0 mm 2 m/S 604 mmHg 46%
    07:00 -8°C° 0 mm 2 m/S 604 mmHg 44%
    08:00 -8°C° 0 mm 2 m/S 604 mmHg 43%
    09:00 -6°C° 0 mm 2 m/S 605 mmHg 42%
    10:00 -5°C° 0 mm 2 m/S 605 mmHg 42%
    11:00 -4°C° 0 mm 2 m/S 605 mmHg 42%
    12:00 -3°C° 0 mm 2 m/S 604 mmHg 43%
    13:00 0°C° 0 mm 1 m/S 604 mmHg 45%
    14:00 0°C° 0 mm 1 m/S 603 mmHg 46%
    15:00 0°C° 0 mm 1 m/S 603 mmHg 49%
    16:00 -1°C° 0 mm 1 m/S 603 mmHg 51%
    17:00 -2°C° 0 mm 1 m/S 603 mmHg 54%
    18:00 -2°C° 0 mm 1 m/S 603 mmHg 53%
    19:00 -3°C° 0 mm 1 m/S 603 mmHg 52%
    20:00 -6°C° 0 mm 2 m/S 604 mmHg 50%
    21:00 -4°C° 0 mm 1 m/S 604 mmHg 49%
    22:00 -4°C° 0 mm 1 m/S 604 mmHg 48%
    23:00 -4°C° 0 mm 1 m/S 604 mmHg 47%

    27 Januar, Montag

    Zeit Temperatur Niederschläge Wind Luftdruck Luftfeuchtigkeit
    00:00 -4°C° 0 mm 1 m/S 604 mmHg 48%
    01:00 -6°C° 0 mm 2 m/S 603 mmHg 48%
    02:00 -6°C° 0 mm 2 m/S 603 mmHg 48%
    03:00 -6°C° 0 mm 2 m/S 603 mmHg 48%
    04:00 -6°C° 0 mm 1 m/S 603 mmHg 49%
    05:00 -6°C° 0 mm 1 m/S 603 mmHg 49%
    06:00 -7°C° 0 mm 2 m/S 603 mmHg 50%
    07:00 -7°C° 0 mm 2 m/S 603 mmHg 50%
    08:00 -7°C° 0 mm 2 m/S 603 mmHg 51%
    09:00 -6°C° 0 mm 2 m/S 603 mmHg 50%
    10:00 -4°C° 0 mm 2 m/S 603 mmHg 50%
    11:00 -3°C° 0 mm 2 m/S 604 mmHg 49%
    12:00 -3°C° 0 mm 2 m/S 603 mmHg 50%
    13:00 -2°C° 0 mm 2 m/S 603 mmHg 52%
    14:00 +1°C° 0 mm 1 m/S 603 mmHg 54%
    15:00 0°C° 0 mm 1 m/S 603 mmHg 56%
    16:00 -1°C° 0 mm 1 m/S 603 mmHg 59%
    17:00 -1°C° 0 mm 1 m/S 602 mmHg 61%
    18:00 -2°C° 0 mm 1 m/S 603 mmHg 61%
    19:00 -3°C° 0 mm 1 m/S 603 mmHg 61%
    20:00 -3°C° 0 mm 1 m/S 604 mmHg 61%
    21:00 -3°C° 0 mm 1 m/S 604 mmHg 60%
    22:00 -6°C° 0 mm 2 m/S 604 mmHg 59%
    23:00 -6°C° 0 mm 2 m/S 605 mmHg 58%
    Mehr zeigen